Previsão horária em Semysotka

Hoje, 25 Junho, Sexta-feira

Tempo Temperatura Precipitação Vento Pressão Humidade
00:00 +23°C° 0 mm 1 m/s 757 mmHg 89%
01:00 +23°C° 0 mm 2 m/s 757 mmHg 90%
02:00 +23°C° 0 mm 2 m/s 757 mmHg 90%
03:00 +23°C° 0 mm 2 m/s 757 mmHg 89%
04:00 +23°C° 0 mm 1 m/s 757 mmHg 88%
05:00 +23°C° 0 mm 1 m/s 757 mmHg 87%
06:00 +25°C° 0 mm 1 m/s 757 mmHg 80%
07:00 +26°C° 0 mm 1 m/s 757 mmHg 72%
08:00 +28°C° 0 mm 1 m/s 757 mmHg 65%
09:00 +29°C° 0 mm 2 m/s 757 mmHg 62%
10:00 +29°C° 0 mm 2 m/s 757 mmHg 59%
11:00 +30°C° 0 mm 2 m/s 757 mmHg 57%
12:00 +30°C° 0 mm 3 m/s 756 mmHg 57%
13:00 +30°C° 0 mm 3 m/s 756 mmHg 58%
14:00 +30°C° 0 mm 3 m/s 756 mmHg 58%
15:00 +30°C° 0 mm 3 m/s 756 mmHg 60%
16:00 +29°C° 0 mm 3 m/s 756 mmHg 62%
17:00 +29°C° 0 mm 3 m/s 756 mmHg 64%
18:00 +27°C° 0 mm 3 m/s 756 mmHg 70%
19:00 +26°C° 0 mm 3 m/s 756 mmHg 76%
20:00 +24°C° 0 mm 3 m/s 756 mmHg 82%
21:00 +24°C° 0 mm 3 m/s 756 mmHg 83%
22:00 +24°C° 0 mm 3 m/s 756 mmHg 85%
23:00 +22°C° 0 mm 3 m/s 755 mmHg 86%

Amanhã, 26 Junho, Sábado

Tempo Temperatura Precipitação Vento Pressão Humidade
00:00 +22°C° 0.1 mm 3 m/s 755 mmHg 86%
01:00 +23°C° 0.1 mm 2 m/s 755 mmHg 87%
02:00 +23°C° 0.1 mm 2 m/s 755 mmHg 87%
03:00 +23°C° 0 mm 2 m/s 755 mmHg 86%
04:00 +23°C° 0 mm 2 m/s 755 mmHg 86%
05:00 +23°C° 0 mm 2 m/s 755 mmHg 85%
06:00 +25°C° 0 mm 2 m/s 755 mmHg 79%
07:00 +26°C° 0 mm 2 m/s 755 mmHg 72%
08:00 +28°C° 0 mm 1 m/s 755 mmHg 66%
09:00 +29°C° 0 mm 2 m/s 755 mmHg 62%
10:00 +30°C° 0 mm 2 m/s 755 mmHg 58%
11:00 +31°C° 0 mm 2 m/s 755 mmHg 55%
12:00 +31°C° 0 mm 2 m/s 755 mmHg 55%
13:00 +31°C° 0 mm 3 m/s 755 mmHg 55%
14:00 +31°C° 0 mm 3 m/s 755 mmHg 55%
15:00 +30°C° 0 mm 3 m/s 755 mmHg 57%
16:00 +30°C° 0 mm 3 m/s 755 mmHg 58%
17:00 +29°C° 0 mm 2 m/s 754 mmHg 60%
18:00 +28°C° 0 mm 3 m/s 754 mmHg 67%
19:00 +26°C° 0 mm 3 m/s 754 mmHg 74%
20:00 +25°C° 0 mm 4 m/s 754 mmHg 81%
21:00 +25°C° 0 mm 4 m/s 754 mmHg 83%
22:00 +23°C° 0 mm 4 m/s 754 mmHg 84%
23:00 +24°C° 0 mm 3 m/s 755 mmHg 86%

Depois de amanhã, 27 Junho, Domingo

Tempo Temperatura Precipitação Vento Pressão Humidade
00:00 +24°C° 0.1 mm 3 m/s 755 mmHg 86%
01:00 +24°C° 0.1 mm 3 m/s 755 mmHg 87%
02:00 +24°C° 0.1 mm 3 m/s 755 mmHg 87%
03:00 +24°C° 0 mm 3 m/s 755 mmHg 85%
04:00 +24°C° 0 mm 3 m/s 755 mmHg 84%
05:00 +24°C° 0 mm 3 m/s 755 mmHg 82%
06:00 +26°C° 0 mm 3 m/s 755 mmHg 76%
07:00 +27°C° 0 mm 3 m/s 755 mmHg 70%
08:00 +29°C° 0 mm 3 m/s 755 mmHg 64%
09:00 +29°C° 0 mm 3 m/s 755 mmHg 62%
10:00 +30°C° 0 mm 4 m/s 755 mmHg 59%
11:00 +32°C° 0 mm 4 m/s 755 mmHg 57%
12:00 +32°C° 0.1 mm 4 m/s 755 mmHg 57%
13:00 +32°C° 0.1 mm 5 m/s 755 mmHg 56%
14:00 +32°C° 0.1 mm 5 m/s 755 mmHg 55%
15:00 +30°C° 0.6 mm 5 m/s 755 mmHg 60%
16:00 +29°C° 0.6 mm 5 m/s 755 mmHg 64%
17:00 +28°C° 0.6 mm 6 m/s 755 mmHg 69%
18:00 +27°C° 0.7 mm 5 m/s 755 mmHg 73%
19:00 +26°C° 0.7 mm 4 m/s 755 mmHg 78%
20:00 +25°C° 0.7 mm 3 m/s 755 mmHg 82%
21:00 +25°C° 1.1 mm 3 m/s 756 mmHg 85%
22:00 +24°C° 1.1 mm 3 m/s 756 mmHg 87%
23:00 +24°C° 1.1 mm 3 m/s 756 mmHg 89%

28 Junho, Segunda-feira

Tempo Temperatura Precipitação Vento Pressão Humidade
00:00 +24°C° 0.1 mm 3 m/s 756 mmHg 90%
01:00 +24°C° 0.1 mm 3 m/s 756 mmHg 90%
02:00 +24°C° 0.1 mm 3 m/s 756 mmHg 90%
03:00 +24°C° 0 mm 3 m/s 756 mmHg 89%
04:00 +24°C° 0 mm 3 m/s 756 mmHg 88%
05:00 +24°C° 0 mm 3 m/s 756 mmHg 87%
06:00 +25°C° 0 mm 3 m/s 756 mmHg 80%
07:00 +27°C° 0 mm 3 m/s 756 mmHg 73%
08:00 +28°C° 0 mm 3 m/s 756 mmHg 66%
09:00 +29°C° 0.1 mm 3 m/s 756 mmHg 63%
10:00 +30°C° 0.1 mm 3 m/s 756 mmHg 60%
11:00 +31°C° 0.1 mm 2 m/s 756 mmHg 57%
12:00 +31°C° 0.7 mm 2 m/s 756 mmHg 56%
13:00 +31°C° 0.7 mm 2 m/s 756 mmHg 56%
14:00 +31°C° 0.7 mm 2 m/s 756 mmHg 56%
15:00 +31°C° 0.5 mm 2 m/s 756 mmHg 58%
16:00 +30°C° 0.5 mm 2 m/s 757 mmHg 60%
17:00 +30°C° 0.5 mm 2 m/s 757 mmHg 61%
18:00 +28°C° 0.1 mm 2 m/s 757 mmHg 67%
19:00 +27°C° 0.1 mm 2 m/s 757 mmHg 73%
20:00 +26°C° 0.1 mm 2 m/s 757 mmHg 79%
21:00 +26°C° 0.1 mm 2 m/s 757 mmHg 78%
22:00 +26°C° 0.1 mm 3 m/s 757 mmHg 78%
23:00 +25°C° 0.1 mm 3 m/s 757 mmHg 77%

29 Junho, Terça-feira

Tempo Temperatura Precipitação Vento Pressão Humidade
00:00 +25°C° 0.1 mm 3 m/s 757 mmHg 79%
01:00 +24°C° 0.1 mm 3 m/s 757 mmHg 82%
02:00 +24°C° 0.1 mm 3 m/s 757 mmHg 84%
03:00 +24°C° 0 mm 3 m/s 757 mmHg 85%
04:00 +24°C° 0 mm 3 m/s 757 mmHg 86%
05:00 +23°C° 0 mm 4 m/s 758 mmHg 86%
06:00 +25°C° 0 mm 4 m/s 758 mmHg 80%
07:00 +26°C° 0 mm 4 m/s 758 mmHg 73%
08:00 +27°C° 0 mm 4 m/s 758 mmHg 67%
09:00 +28°C° 0 mm 4 m/s 758 mmHg 63%
10:00 +28°C° 0 mm 4 m/s 758 mmHg 59%
11:00 +29°C° 0 mm 4 m/s 758 mmHg 55%
12:00 +29°C° 0.1 mm 3 m/s 758 mmHg 55%
13:00 +29°C° 0.1 mm 3 m/s 758 mmHg 55%
14:00 +29°C° 0.1 mm 2 m/s 758 mmHg 55%
15:00 +29°C° 0 mm 2 m/s 758 mmHg 54%
16:00 +29°C° 0 mm 2 m/s 758 mmHg 53%
17:00 +29°C° 0 mm 2 m/s 758 mmHg 52%
18:00 +28°C° 0 mm 2 m/s 758 mmHg 57%
19:00 +26°C° 0 mm 2 m/s 758 mmHg 62%
20:00 +25°C° 0 mm 1 m/s 758 mmHg 66%
21:00 +25°C° 0 mm 1 m/s 758 mmHg 65%
22:00 +25°C° 0 mm 1 m/s 758 mmHg 65%
23:00 +25°C° 0 mm 1 m/s 758 mmHg 64%

30 Junho, Quarta-feira

Tempo Temperatura Precipitação Vento Pressão Humidade
00:00 +24°C° 0 mm 2 m/s 758 mmHg 65%
01:00 +24°C° 0 mm 2 m/s 758 mmHg 67%
02:00 +22°C° 0 mm 3 m/s 758 mmHg 68%
03:00 +22°C° 0 mm 3 m/s 758 mmHg 70%
04:00 +22°C° 0 mm 3 m/s 758 mmHg 72%
05:00 +22°C° 0 mm 3 m/s 758 mmHg 74%
06:00 +25°C° 0 mm 3 m/s 758 mmHg 67%
07:00 +26°C° 0 mm 3 m/s 758 mmHg 60%
08:00 +28°C° 0 mm 2 m/s 758 mmHg 52%
09:00 +29°C° 0 mm 2 m/s 758 mmHg 49%
10:00 +30°C° 0 mm 2 m/s 758 mmHg 45%
11:00 +31°C° 0 mm 2 m/s 758 mmHg 42%
12:00 +31°C° 0 mm 3 m/s 758 mmHg 42%
13:00 +31°C° 0 mm 3 m/s 758 mmHg 43%
14:00 +32°C° 0 mm 4 m/s 758 mmHg 44%
15:00 +30°C° 0 mm 4 m/s 758 mmHg 48%
16:00 +29°C° 0 mm 4 m/s 758 mmHg 52%
17:00 +29°C° 0 mm 4 m/s 757 mmHg 55%
18:00 +27°C° 0 mm 4 m/s 757 mmHg 61%
19:00 +26°C° 0 mm 4 m/s 758 mmHg 67%
20:00 +25°C° 0 mm 4 m/s 758 mmHg 72%
21:00 +25°C° 0 mm 3 m/s 758 mmHg 72%
22:00 +24°C° 0 mm 3 m/s 758 mmHg 72%
23:00 +24°C° 0 mm 3 m/s 758 mmHg 71%
Mostrar mais

Necessitamos do seu Consentimento

A Meteoprog e os seus Fornecedores de Serviços podem armazenar e aceder a dados pessoais como cookies, identificadores do dispositivo ou outras tecnologias semelhantes existentes no seu dispositivo e processar estes dados para personalizar conteúdos e anúncios, assim como funcionalidades nas redes sociais e análise de tráfego.

  • Armazenar e/ou aceder a informações no seu dispositivo

    Os cookies, identificadores do dispositivo ou outras informações podem ser armazenados ou acedidos no seu dispositivo, para os fins acima indicados.

  • Anúncios e conteúdos personalizados, medição de anúncios e conteúdos, dados sobre o público-alvo e desenvolvimento de produtos

    Os anúncios e os conteúdos podem ser personalizados com base num perfil. Podem ser adicionados dados adicionais para uma maior personalização dos anúncios e dos conteúdos. A eficácia dos anúncios e dos conteúdos pode ser medida. Podem ser obtidas informações sobre o público que visualizou os anúncios e os conteúdos. Estes dados podem ser usados para desenvolver ou melhorar sistemas, softwares ou a experiência do utilizador.

Ao clicar em "Eu concordo”, permitirá o uso de cookies, identificadores do dispositivo e web beacons mencionados ou outras tecnologias semelhantes. As configurações do navegador do seu dispositivo podem ser alteradas.

Para certos fins, podem ser invocados interesses legítimos ao invés de consentimento. Pode ler mais informação sobre este assunto na nossa Política de Privacidade e Cookies.